Cincinnati, OH

2:47 AM EST on December 15, 2017 (GMT -0500)
Cincinnati Municipal-Lunken

Weather History for KLUK - September, 2013

Change the Weather History Date:

Wednesday, September 4, 2013

  Actual Average Record
Temperature  
Mean Temperature 66 °F -  
Max Temperature 81 °F 81 °F 97 °F (2007)
Min Temperature 53 °F 62 °F 44 °F (1997)
Cooling Degree Days 2    
Growing Degree Days 16 (Base 50)    
Moisture  
Dew Point 57 °F    
Average Humidity 84    
Maximum Humidity 100    
Minimum Humidity 42    
Precipitation  
Precipitation 0.00 in - - ()
Sea Level Pressure  
Sea Level Pressure 30.13 in    
Wind  
Wind Speed 2 mph (WNW)    
Max Wind Speed 8 mph    
Max Gust Speed -    
Visibility 8 miles    
Events Fog    
Averages and records for this station are not official NWS values.
T = Trace of Precipitation, MM = Missing Value Source: NWS Daily Summary

Daily Weather History Graph

Daily Weather History Graph

Search for Another Location

Airport or City:

Trip Planner

Search our weather history database for the weather conditions in past years. The results will help you decide how hot, cold, wet, or windy it might be!

Date:

Astronomy

Sep. 04, 2013 Rise Set
Actual Time 7:09 AM EDT 8:03 PM EDT
Civil Twilight 6:42 AM EDT 8:30 PM EDT
Nautical Twilight 6:09 AM EDT 9:02 PM EDT
Astronomical Twilight 5:36 AM EDT 9:35 PM EDT
Moon 6:20 AM EDT (9/4) 7:22 PM EDT (9/4)
Length of Visible Light 13h 48m
Length of Day
12h 53m
Waning Crescent, 1% of the Moon is Illuminated
Sep 4
Waning Crescent
Sep 5
New
Sep 12
First Quarter
Sep 19
Full
Sep 26
Last Quarter

Hourly Weather History & Observations

Time (EDT) Temp. Heat Index Dew Point Humidity Pressure Visibility Wind Dir Wind Speed Gust Speed Precip Events Conditions
12:53 AM 57.9 °F - 57.9 °F 100% 30.08 in 10.0 mi Calm Calm - N/A   Clear
1:53 AM 57.0 °F - 55.9 °F 96% 30.09 in 10.0 mi Calm Calm - N/A   Clear
2:53 AM 57.0 °F - 55.9 °F 96% 30.10 in 10.0 mi Calm Calm - N/A   Clear
3:53 AM 55.9 °F - 55.9 °F 100% 30.10 in 10.0 mi NNE 3.5 mph - N/A   Clear
4:53 AM 55.9 °F - 55.0 °F 97% 30.11 in 10.0 mi NE 3.5 mph - N/A   Clear
5:53 AM 54.0 °F - 54.0 °F 100% 30.12 in 9.0 mi ENE 3.5 mph - N/A   Clear
6:04 AM 53.6 °F - 53.6 °F 100% 30.12 in 5.0 mi NE 3.5 mph - N/A   Partly Cloudy
6:08 AM 53.6 °F - 53.6 °F 100% 30.12 in 1.8 mi NE 3.5 mph - N/A   Partly Cloudy
6:11 AM 53.6 °F - 53.6 °F 100% 30.12 in 0.8 mi Calm Calm - N/A   Mist
6:19 AM 55.4 °F - 55.4 °F 100% 30.12 in 1.2 mi Calm Calm - N/A   Partly Cloudy
6:21 AM 55.4 °F - 55.4 °F 100% 30.13 in 3.0 mi Calm Calm - N/A   Partly Cloudy
6:53 AM 55.0 °F - 54.0 °F 96% 30.12 in 8.0 mi Calm Calm - N/A Fog Patches of Fog
7:53 AM 55.9 °F - 55.9 °F 100% 30.15 in 8.0 mi Calm Calm - N/A Fog Patches of Fog
8:18 AM 57.2 °F - 55.4 °F 94% 30.16 in 5.0 mi Calm Calm - N/A Fog Patches of Fog
8:53 AM 57.9 °F - 57.9 °F 100% 30.16 in 0.2 mi Calm Calm - N/A Fog Fog
9:22 AM 60.8 °F - 60.8 °F 100% 30.17 in 2.0 mi Variable 3.5 mph - N/A Fog Patches of Fog
9:29 AM 60.8 °F - 59.0 °F 94% 30.17 in 3.0 mi WSW 3.5 mph - N/A Fog Patches of Fog
9:53 AM 61.0 °F - 61.0 °F 100% 30.17 in 10.0 mi Calm Calm - N/A   Clear
10:00 AM 62.6 °F - 60.8 °F 94% 30.17 in 10.0 mi Calm Calm - N/A   Partly Cloudy
10:53 AM 69.1 °F - 60.1 °F 73% 30.17 in 10.0 mi Calm Calm - N/A   Clear
11:53 AM 73.9 °F - 57.9 °F 57% 30.16 in 10.0 mi Calm Calm - N/A   Clear
12:53 PM 75.9 °F - 57.9 °F 54% 30.15 in 10.0 mi Calm Calm - N/A   Clear
1:53 PM 77.0 °F - 57.0 °F 50% 30.14 in 10.0 mi NW 5.8 mph - N/A   Clear
2:53 PM 79.0 °F - 57.9 °F 48% 30.12 in 10.0 mi SW 8.1 mph - N/A   Clear
3:53 PM 80.1 °F 80.1 °F 55.0 °F 42% 30.12 in 10.0 mi WSW 3.5 mph - N/A   Clear
4:53 PM 80.1 °F 80.1 °F 55.0 °F 42% 30.11 in 10.0 mi Variable 3.5 mph - N/A   Clear
5:53 PM 80.1 °F 80.2 °F 55.9 °F 43% 30.11 in 10.0 mi Variable 4.6 mph - N/A   Clear
6:53 PM 79.0 °F - 57.9 °F 48% 30.10 in 10.0 mi West 6.9 mph - N/A   Clear
7:53 PM 72.0 °F - 63.0 °F 73% 30.10 in 10.0 mi South 3.5 mph - N/A   Clear
8:53 PM 64.9 °F - 62.1 °F 90% 30.11 in 10.0 mi South 3.5 mph - N/A   Clear
9:53 PM 64.9 °F - 62.1 °F 90% 30.13 in 10.0 mi Calm Calm - N/A   Clear
10:53 PM 63.0 °F - 62.1 °F 97% 30.14 in 10.0 mi Calm Calm - N/A   Clear
11:53 PM 63.0 °F - 61.0 °F 93% 30.14 in 8.0 mi Calm Calm - N/A   Clear